TimeEDT,TemperatureF,Dew PointF,Humidity,Sea Level PressureIn,VisibilityMPH,Wind Direction,Wind SpeedMPH,Gust SpeedMPH,PrecipitationIn,Events,Conditions,WindDirDegrees,DateUTC
1:53 AM,66.0,55.9,70,30.03,10.0,South,11.5,-,N/A,,Clear,190,2012-10-14 05:53:00
2:53 AM,64.9,55.9,73,30.01,10.0,South,10.4,-,N/A,,Scattered Clouds,190,2012-10-14 06:53:00
3:53 AM,64.9,55.0,70,30.01,10.0,South,9.2,-,N/A,,Mostly Cloudy,190,2012-10-14 07:53:00
4:53 AM,63.0,55.0,75,30.00,10.0,SSE,8.1,-,N/A,,Mostly Cloudy,160,2012-10-14 08:53:00
5:53 AM,62.1,54.0,75,30.01,10.0,SSE,6.9,-,N/A,,Mostly Cloudy,160,2012-10-14 09:53:00
6:53 AM,63.0,54.0,72,30.01,10.0,South,5.8,-,N/A,,Mostly Cloudy,180,2012-10-14 10:53:00
7:53 AM,60.1,53.1,78,30.01,10.0,SSE,5.8,-,N/A,,Scattered Clouds,160,2012-10-14 11:53:00
8:53 AM,63.0,54.0,72,30.01,10.0,South,10.4,-,N/A,,Overcast,190,2012-10-14 12:53:00
9:53 AM,66.9,55.9,68,29.99,10.0,South,12.7,-,N/A,,Mostly Cloudy,180,2012-10-14 13:53:00
10:53 AM,69.1,57.9,68,29.97,10.0,South,19.6,28.8,N/A,,Mostly Cloudy,190,2012-10-14 14:53:00
11:53 AM,71.1,59.0,66,29.93,10.0,South,18.4,28.8,N/A,,Mostly Cloudy,180,2012-10-14 15:53:00
12:53 PM,72.0,59.0,64,29.88,10.0,South,26.5,39.1,N/A,,Overcast,190,2012-10-14 16:53:00
1:53 PM,72.0,59.0,64,29.86,10.0,SSW,18.4,32.2,N/A,,Overcast,200,2012-10-14 17:53:00
2:53 PM,73.0,59.0,61,29.82,10.0,SSW,23.0,36.8,N/A,,Mostly Cloudy,200,2012-10-14 18:53:00
4:53 PM,73.0,59.0,61,29.78,10.0,South,24.2,33.4,N/A,,Mostly Cloudy,190,2012-10-14 20:53:00
5:53 PM,72.0,59.0,64,29.75,10.0,South,17.3,33.4,N/A,,Overcast,190,2012-10-14 21:53:00
6:53 PM,66.0,62.1,87,29.78,10.0,SW,10.4,-,0.03,,Mostly Cloudy,220,2012-10-14 22:53:00
7:53 PM,64.0,61.0,90,29.78,10.0,SSW,9.2,-,0.00,,Clear,210,2012-10-14 23:53:00
8:53 PM,66.0,60.1,81,29.77,10.0,South,5.8,-,N/A,,Overcast,190,2012-10-15 00:53:00
9:53 PM,68.0,59.0,73,29.78,10.0,WSW,10.4,-,0.00,,Overcast,240,2012-10-15 01:53:00
10:53 PM,62.1,57.9,86,29.82,10.0,WSW,12.7,21.9,0.07,,Overcast,240,2012-10-15 02:53:00
11:53 PM,61.0,59.0,93,29.83,10.0,WSW,6.9,-,N/A,,Overcast,240,2012-10-15 03:53:00